Location: Buckland
(65.9785°N, 161.1281°W)
Time: 22:10:02
(UTC+00:00)

SPROUT - Pass Details

Date: 20 January 2021
Orbit: 597 x 610 km, 97.9° (Epoch: 07 March)

Event Time Altitude Azimuth Distance (km) Brightness Sun altitude
Exits shadow 05:52:08 10° 8° (N) 1,974 ? -24.0°
Maximum altitude 05:52:20 10° 5° (N) 1,972 ? -24.0°
Drops below altitude 10° 05:52:39 10° 1° (N) 1,978 ? -24.1°
Sets 05:57:11 0° 316° (NW) 2,887 ? -24.5°
